STARLINK-3690, 51964

Orbit data source: Space-Track

STARLINK-3690, 51964 is a payload satellite owned by SpaceX/Seattle (US) in LEO that was launched on Wed, 09 Mar 2022 UTC via an FALCON 9 launch vehicle from the Air Force Eastern Test Range (AFETR). Payload-class satellites include a variety of spacecraft equipped with specific instruments for various scientific and technological missions. These include communications satellites like Starlink; space stations such as the ISS; scientific satellites like the Hubble; Earth observation satellites from companies like Planet Labs, Umbra, and HawkEye 360; GPS; miniature CubeSats for education and research; and military/defense satellites.

Loading next visibility...
Identifier
51964, 2022-025J
Orbit
LEO
Country
Flag of USUS
Related business
Manufacturer
SpaceX/Seattle
Mission
Operational Commercial Communications
Bus & Motor
STARLINK, Unknown motor
Mass
297 kg wet, ~275 kg dry
Launch date (UTC)
2022-03-09 (4 years ago)
Launch vehicle
FALCON 9
Launch site
Air Force Eastern Test Range (AFETR)
Object type
Payload
Rocket body
Debris
Shape & HBR
Box + 1 Pan, 10.1 m
Radar Cross Section
13.562 m², Large (>1 m²)

Expand to show TLE details & history
Last TLE update: 2 days ago

TLE from 2 days ago
0 STARLINK-3690
1 51964U 22025J   26171.40341087  .00000390  00000-0  24342-4 0  9991
2 51964  53.1571 266.4388 0001082  75.8864 284.2258 15.31702085236751
Epoch: 2026-06-20T09:40Z
TLE epoch observation values (Epoch: 2026-06-20T09:40:54.699Z)
Latitude
0.00003°
Longitude
-147.40762°
Altitude
471.452 km
Speed
7.632 km/s
True Right ascension
17h 45m 45s
True Declination
0° 00' 00"
Sunlit
Object was in full shadow at epoch
Visualization orbit readout
Latitude
Unknown
Longitude
Unknown
Altitude
Unknown
Speed
Unknown
Apparent Right ascension
Unknown
Apparent Declination
Unknown
Sunlit
N/A
Visualization observer readout
Local Sidereal Time
02:13:09
Azimuth
Unknown
Elevation
Unknown
Doppler factor
Unknown
Orbital elements
Apogee altitude
471.732 km
Perigee altitude
470.25 km
Semi-major axis
6,849.128 km
Eccentricity
0.00011
Inclination
53.1571°
RAAN
266.4388°
Arg. of periapsis
75.8864°
True anomaly
284.21378°
Mean anomaly
284.2258°
Eccentric anomaly
284.21979°
Mean motion
3.82904 °/min
Orbital period
94.02 mins
BSTAR
0.000024342
Loading maneuver chart data...
Computing Atmospheric mass density...
Loading historical data...
Loading historical data...
Loading historical data...
Loading historical data...
Loading historical data...
Loading historical data...
Loading historical data...

Documentation

Showing up to 5 results
|